| time (UTC) | temp F | wind direction | speed MPH | gust MPH | rain 1hr in | rain 24hr in | rain mn in | humidity % | barometer mb |
| 20260505220034 | 54 | 276 | 1.0 | 4.0 | 0.00 | 2.83 | 0.57 | 96 | 1006.4 |
| 20260505215539 | 54 | 315 | 1.0 | 6.0 | 0.00 | 2.83 | 0.57 | 96 | 1006.5 |
| 20260505215039 | 54 | 293 | 1.0 | 8.0 | 0.00 | 2.83 | 0.57 | 96 | 1006.4 |
| 20260505214542 | 54 | 311 | 3.0 | 8.0 | 0.00 | 2.83 | 0.57 | 96 | 1006.4 |
| 20260505214041 | 54 | 299 | 4.0 | 6.0 | 0.00 | 2.83 | 0.57 | 96 | 1006.4 |
| 20260505213541 | 54 | 302 | 3.0 | 7.0 | 0.00 | 2.83 | 0.57 | 96 | 1006.3 |
| 20260505213028 | 54 | 305 | 3.0 | 6.0 | 0.00 | 2.83 | 0.57 | 96 | 1006.4 |
| 20260505212532 | 54 | 288 | 2.0 | 5.0 | 0.00 | 2.83 | 0.57 | 96 | 1006.4 |
| 20260505212105 | 54 | 283 | 1.0 | 4.0 | 0.00 | 2.83 | 0.57 | 96 | 1006.4 |
| 20260505211551 | 54 | 303 | 1.0 | 7.0 | 0.00 | 2.83 | 0.57 | 96 | 1006.4 |
| 20260505211035 | 54 | 256 | 1.0 | 7.0 | 0.00 | 2.83 | 0.57 | 96 | 1006.4 |
| 20260505210539 | 54 | 273 | 1.0 | 4.0 | 0.00 | 2.83 | 0.57 | 96 | 1006.5 |
| 20260505210047 | 54 | 304 | 1.0 | 5.0 | 0.00 | 2.83 | 0.57 | 96 | 1006.5 |
| 20260505205533 | 54 | 286 | 1.0 | 5.0 | 0.04 | 2.83 | 0.57 | 96 | 1006.4 |
| 20260505205031 | 54 | 258 | 1.0 | 7.0 | 0.04 | 2.83 | 0.57 | 96 | 1006.4 |
| 20260505204542 | 54 | 255 | 2.0 | 7.0 | 0.04 | 2.83 | 0.57 | 96 | 1006.4 |
| 20260505204042 | 54 | 302 | 1.0 | 8.0 | 0.04 | 2.83 | 0.57 | 96 | 1006.5 |
| 20260505203529 | 54 | 303 | 3.0 | 8.0 | 0.04 | 2.83 | 0.57 | 96 | 1006.4 |
| 20260505203031 | 54 | 309 | 2.0 | 7.0 | 0.04 | 2.83 | 0.57 | 96 | 1006.4 |
| 20260505202542 | 54 | 315 | 2.0 | 8.0 | 0.04 | 2.83 | 0.57 | 96 | 1006.4 |
| 20260505202036 | 54 | 325 | 3.0 | 9.0 | 0.04 | 2.83 | 0.57 | 96 | 1006.3 |
| 20260505201538 | 55 | 270 | 4.0 | 9.0 | 0.04 | 2.83 | 0.57 | 96 | 1006.3 |
| 20260505201105 | 55 | 312 | 5.0 | 11.0 | 0.04 | 2.83 | 0.57 | 96 | 1006.2 |
| 20260505200533 | 55 | 330 | 6.0 | 11.0 | 0.04 | 2.83 | 0.57 | 95 | 1006.2 |
| 20260505200044 | 55 | 321 | 5.0 | 11.0 | 0.04 | 2.83 | 0.57 | 95 | 1006.1 |
| 20260505195603 | 55 | 305 | 6.0 | 11.0 | 0.00 | 2.80 | 0.56 | 95 | 1006.0 |
| 20260505195038 | 55 | 321 | 5.0 | 10.0 | 0.00 | 2.80 | 0.56 | 95 | 1006.0 |
| 20260505194546 | 55 | 333 | 6.0 | 11.0 | 0.00 | 2.80 | 0.56 | 95 | 1005.9 |
| 20260505194035 | 55 | 300 | 5.0 | 9.0 | 0.00 | 2.80 | 0.56 | 95 | 1005.8 |
| 20260505193537 | 55 | 295 | 4.0 | 11.0 | 0.00 | 2.80 | 0.56 | 95 | 1005.8 |
| 20260505193037 | 55 | 278 | 5.0 | 11.0 | 0.00 | 2.80 | 0.56 | 95 | 1005.7 |
| 20260505192547 | 55 | 290 | 2.0 | 10.0 | 0.00 | 2.80 | 0.56 | 95 | 1005.6 |
| 20260505192031 | 55 | 344 | 6.0 | 10.0 | 0.00 | 2.80 | 0.56 | 95 | 1005.6 |
| 20260505191532 | 55 | 329 | 4.0 | 12.0 | 0.00 | 2.80 | 0.56 | 95 | 1005.5 |
| 20260505191032 | 56 | 303 | 7.0 | 16.0 | 0.00 | 2.80 | 0.56 | 95 | 1005.5 |
| 20260505190556 | 56 | 317 | 8.0 | 16.0 | 0.00 | 2.80 | 0.56 | 95 | 1005.4 |
| 20260505190035 | 56 | 298 | 10.0 | 14.0 | 0.00 | 2.80 | 0.56 | 95 | 1005.3 |
| 20260505185538 | 56 | 318 | 6.0 | 12.0 | 0.00 | 2.80 | 0.56 | 95 | 1005.1 |
| 20260505185044 | 55 | 333 | 6.0 | 12.0 | 0.00 | 2.80 | 0.56 | 95 | 1005.0 |
| 20260505184535 | 56 | 273 | 5.0 | 12.0 | 0.00 | 2.80 | 0.56 | 95 | 1004.9 |
| 20260505184035 | 56 | 273 | 3.0 | 12.0 | 0.00 | 2.80 | 0.56 | 95 | 1004.9 |
| 20260505183532 | 56 | 275 | 4.0 | 13.0 | 0.00 | 2.80 | 0.56 | 95 | 1004.8 |
| 20260505183031 | 56 | 302 | 5.0 | 13.0 | 0.00 | 2.80 | 0.56 | 94 | 1004.7 |
| 20260505182541 | 56 | 275 | 5.0 | 11.0 | 0.00 | 2.80 | 0.56 | 94 | 1004.6 |
| 20260505182037 | 56 | 225 | 6.0 | 13.0 | 0.00 | 2.80 | 0.56 | 94 | 1004.6 |
| 20260505181541 | 56 | 257 | 6.0 | 13.0 | 0.00 | 2.80 | 0.56 | 93 | 1004.5 |
| 20260505181041 | 56 | 294 | 6.0 | 13.0 | 0.00 | 2.80 | 0.56 | 93 | 1004.6 |
| 20260505180606 | 56 | 227 | 3.0 | 11.0 | 0.04 | 2.80 | 0.56 | 93 | 1004.5 |
| 20260505180032 | 56 | 231 | 3.0 | 11.0 | 0.04 | 2.80 | 0.56 | 93 | 1004.5 |
| 20260505175542 | 56 | 272 | 4.0 | 16.0 | 0.04 | 2.80 | 0.56 | 93 | 1004.6 |
| 20260505175025 | 56 | 215 | 6.0 | 16.0 | 0.04 | 2.80 | 0.56 | 93 | 1004.5 |
| 20260505174602 | 56 | 188 | 5.0 | 14.0 | 0.04 | 2.80 | 0.56 | 93 | 1004.6 |
| 20260505174040 | 56 | 214 | 5.0 | 14.0 | 0.04 | 2.80 | 0.56 | 94 | 1004.4 |
| 20260505173545 | 56 | 252 | 5.0 | 18.0 | 0.04 | 2.80 | 0.56 | 93 | 1004.4 |
| 20260505173047 | 57 | 234 | 6.0 | 18.0 | 0.04 | 2.80 | 0.56 | 93 | 1004.5 |
| 20260505172529 | 56 | 236 | 4.0 | 11.0 | 0.04 | 2.80 | 0.56 | 93 | 1004.3 |
| 20260505172028 | 57 | 232 | 6.0 | 14.0 | 0.04 | 2.80 | 0.56 | 93 | 1004.4 |
| 20260505171531 | 57 | 236 | 7.0 | 14.0 | 0.04 | 2.80 | 0.56 | 93 | 1004.4 |
| 20260505171032 | 57 | 263 | 4.0 | 14.0 | 0.04 | 2.80 | 0.56 | 92 | 1004.4 |
| 20260505170540 | 57 | 291 | 4.0 | 14.0 | 0.00 | 2.76 | 0.55 | 91 | 1004.4 |
| 20260505170044 | 58 | 161 | 3.0 | 19.0 | 0.00 | 2.76 | 0.55 | 90 | 1004.6 |
| 20260505165613 | 59 | 212 | 6.0 | 19.0 | 0.00 | 2.76 | 0.55 | 89 | 1004.4 |
| 20260505165044 | 60 | 242 | 5.0 | 12.0 | 0.00 | 2.76 | 0.55 | 86 | 1004.4 |
| 20260505164545 | 60 | 235 | 7.0 | 13.0 | 0.00 | 2.76 | 0.55 | 85 | 1004.1 |
| 20260505164046 | 60 | 184 | 4.0 | 13.0 | 0.00 | 2.76 | 0.55 | 84 | 1004.4 |
| 20260505163539 | 61 | 255 | 5.0 | 11.0 | 0.00 | 2.76 | 0.55 | 82 | 1004.4 |
| 20260505163036 | 61 | 221 | 3.0 | 10.0 | 0.00 | 2.76 | 0.55 | 84 | 1004.5 |
| 20260505162547 | 62 | 195 | 4.0 | 10.0 | 0.00 | 2.76 | 0.55 | 83 | 1004.5 |
| 20260505162107 | 62 | 219 | 4.0 | 8.0 | 0.00 | 2.76 | 0.55 | 83 | 1004.6 |
| 20260505161531 | 62 | 238 | 2.0 | 8.0 | 0.00 | 2.76 | 0.55 | 85 | 1004.6 |
| 20260505161029 | 61 | 184 | 3.0 | 8.0 | 0.00 | 2.76 | 0.55 | 85 | 1004.7 |
| 20260505160600 | 61 | 196 | 1.0 | 7.0 | 0.00 | 2.76 | 0.55 | 83 | 1004.6 |
| 20260505153032 | 62 | 234 | 6.0 | 11.0 | 0.00 | 2.76 | 0.55 | 80 | 1004.7 |
| 20260505152541 | 62 | 221 | 3.0 | 8.0 | 0.00 | 2.76 | 0.55 | 81 | 1004.7 |
| 20260505152103 | 62 | 278 | 3.0 | 8.0 | 0.00 | 2.76 | 0.55 | 81 | 1004.8 |
| 20260505151534 | 63 | 236 | 2.0 | 8.0 | 0.00 | 2.76 | 0.55 | 80 | 1004.8 |
| 20260505151034 | 63 | 227 | 4.0 | 10.0 | 0.00 | 2.76 | 0.55 | 80 | 1004.7 |
| 20260505150539 | 63 | 323 | 3.0 | 9.0 | 0.00 | 2.76 | 0.55 | 81 | 1004.7 |
| 20260505140525 | 62 | 224 | 3.0 | 10.0 | 0.00 | 2.76 | 0.55 | 86 | 1004.9 |
| 20260505125034 | 59 | 233 | 4.0 | 9.0 | 0.00 | 2.76 | 0.55 | 92 | 1005.0 |
| 20260505124538 | 60 | 219 | 3.0 | 9.0 | 0.00 | 2.76 | 0.55 | 92 | 1005.0 |
| 20260505124044 | 60 | 202 | 5.0 | 10.0 | 0.00 | 2.76 | 0.55 | 92 | 1005.0 |
| 20260505123534 | 60 | 246 | 6.0 | 10.0 | 0.00 | 2.76 | 0.55 | 91 | 1004.9 |
| 20260505123038 | 61 | 167 | 6.0 | 11.0 | 0.00 | 2.76 | 0.55 | 90 | 1004.9 |
| 20260505122606 | 62 | 194 | 6.0 | 11.0 | 0.00 | 2.76 | 0.55 | 89 | 1004.9 |
| 20260505122045 | 62 | 217 | 6.0 | 12.0 | 0.00 | 2.76 | 0.55 | 88 | 1004.8 |
| 20260505121532 | 62 | 215 | 6.0 | 12.0 | 0.00 | 2.76 | 0.55 | 88 | 1004.8 |
| 20260505121030 | 62 | 229 | 5.0 | 10.0 | 0.00 | 2.76 | 0.55 | 88 | 1004.8 |
| 20260505120535 | 62 | 227 | 4.0 | 10.0 | 0.00 | 2.76 | 0.55 | 91 | 1004.8 |
| 20260505120034 | 62 | 207 | 5.0 | 8.0 | 0.00 | 2.80 | 0.55 | 91 | 1004.8 |
| 20260505115549 | 61 | 213 | 5.0 | 8.0 | 0.04 | 2.80 | 0.55 | 91 | 1004.8 |
| 20260505115045 | 62 | 209 | 4.0 | 8.0 | 0.04 | 2.80 | 0.55 | 92 | 1004.8 |
| 20260505114531 | 62 | 235 | 4.0 | 6.0 | 0.12 | 2.80 | 0.55 | 95 | 1004.8 |
| 20260505114034 | 61 | 257 | 3.0 | 6.0 | 0.20 | 2.80 | 0.55 | 96 | 1004.9 |
| 20260505113536 | 60 | 185 | 2.0 | 6.0 | 0.20 | 2.80 | 0.55 | 96 | 1004.8 |
| 20260505113100 | 60 | 305 | 2.0 | 4.0 | 0.28 | 2.80 | 0.55 | 96 | 1004.9 |
| 20260505112552 | 60 | 70 | 1.0 | 4.0 | 0.31 | 2.80 | 0.55 | 96 | 1004.9 |
| 20260505112037 | 59 | 37 | 1.0 | 3.0 | 0.31 | 2.80 | 0.55 | 96 | 1004.9 |
| 20260505111607 | 59 | 75 | 1.0 | 3.0 | 0.31 | 2.80 | 0.55 | 96 | 1004.9 |
| 20260505111044 | 59 | 138 | 0.0 | 6.0 | 0.31 | 2.80 | 0.55 | 96 | 1005.0 |
| 20260505110532 | 59 | 163 | 2.0 | 10.0 | 0.31 | 2.80 | 0.55 | 96 | 1005.0 |
| 20260505102033 | 59 | 69 | 4.0 | 8.0 | 0.04 | 2.48 | 0.49 | 97 | 1005.1 |
| 20260505101535 | 59 | 44 | 4.0 | 8.0 | 0.04 | 2.48 | 0.49 | 97 | 1005.1 |
| 20260505101032 | 59 | 70 | 4.0 | 7.0 | 0.04 | 2.48 | 0.49 | 97 | 1005.1 |
| 20260505100537 | 59 | 68 | 3.0 | 6.0 | 0.04 | 2.48 | 0.49 | 97 | 1005.2 |
| 20260505100028 | 58 | 107 | 3.0 | 6.0 | 0.08 | 2.48 | 0.49 | 97 | 1005.2 |
| 20260505095546 | 58 | 63 | 0.0 | 5.0 | 0.08 | 2.48 | 0.49 | 97 | 1005.2 |
| 20260505095047 | 58 | 57 | 1.0 | 5.0 | 0.12 | 2.48 | 0.49 | 97 | 1005.2 |
| 20260505094528 | 58 | 126 | 1.0 | 6.0 | 0.16 | 2.48 | 0.49 | 97 | 1005.2 |
| 20260505094042 | 58 | 74 | 2.0 | 6.0 | 0.16 | 2.44 | 0.48 | 97 | 1005.2 |
| 20260505093529 | 58 | 67 | 1.0 | 8.0 | 0.20 | 2.44 | 0.48 | 97 | 1005.2 |
| 20260505093046 | 58 | 78 | 4.0 | 8.0 | 0.24 | 2.44 | 0.48 | 97 | 1005.2 |
| 20260505092551 | 57 | 88 | 4.0 | 8.0 | 0.28 | 2.44 | 0.48 | 97 | 1005.2 |
| 20260505092027 | 57 | 82 | 3.0 | 6.0 | 0.35 | 2.44 | 0.48 | 97 | 1005.2 |
| 20260505091540 | 57 | 39 | 3.0 | 6.0 | 0.35 | 2.44 | 0.48 | 97 | 1005.2 |
| 20260505091037 | 57 | 74 | 4.0 | 6.0 | 0.39 | 2.44 | 0.48 | 97 | 1005.2 |
| 20260505090541 | 57 | 71 | 5.0 | 7.0 | 0.35 | 2.40 | 0.47 | 97 | 1005.2 |
| 20260505090032 | 57 | 77 | 3.0 | 8.0 | 0.39 | 2.40 | 0.47 | 97 | 1005.2 |
| 20260505085604 | 57 | 50 | 3.0 | 8.0 | 0.39 | 2.40 | 0.47 | 97 | 1005.3 |
| 20260505085044 | 57 | 44 | 4.0 | 6.0 | 0.39 | 2.36 | 0.46 | 97 | 1005.3 |
| 20260505084531 | 57 | 55 | 3.0 | 6.0 | 0.39 | 2.32 | 0.46 | 97 | 1005.3 |
| 20260505084031 | 56 | 55 | 4.0 | 6.0 | 0.39 | 2.28 | 0.45 | 97 | 1005.2 |
| 20260505083531 | 56 | 64 | 3.0 | 6.0 | 0.39 | 2.24 | 0.44 | 97 | 1005.3 |
| 20260505083030 | 56 | 50 | 4.0 | 8.0 | 0.39 | 2.20 | 0.43 | 97 | 1005.3 |
| 20260505082538 | 56 | 48 | 5.0 | 8.0 | 0.35 | 2.13 | 0.42 | 97 | 1005.3 |
| 20260505082103 | 56 | 50 | 4.0 | 6.0 | 0.39 | 2.09 | 0.41 | 97 | 1005.3 |
| 20260505081544 | 56 | 55 | 3.0 | 9.0 | 0.51 | 2.09 | 0.41 | 97 | 1005.3 |
| 20260505081042 | 56 | 49 | 4.0 | 9.0 | 0.63 | 2.05 | 0.40 | 97 | 1005.3 |
| 20260505080542 | 56 | 49 | 3.0 | 8.0 | 0.63 | 2.01 | 0.39 | 97 | 1005.4 |
| 20260505080059 | 56 | 55 | 5.0 | 8.0 | 0.71 | 2.01 | 0.39 | 97 | 1005.4 |
| 20260505075543 | 56 | 53 | 4.0 | 6.0 | 0.71 | 1.97 | 0.39 | 97 | 1005.5 |
| 20260505075028 | 56 | 38 | 3.0 | 6.0 | 0.79 | 1.97 | 0.39 | 97 | 1005.5 |
| 20260505074528 | 56 | 39 | 4.0 | 6.0 | 0.83 | 1.93 | 0.38 | 97 | 1005.5 |
| 20260505074028 | 56 | 52 | 2.0 | 5.0 | 0.87 | 1.89 | 0.37 | 97 | 1005.5 |
| 20260505073546 | 56 | 60 | 4.0 | 6.0 | 0.94 | 1.85 | 0.36 | 97 | 1005.6 |
| 20260505073032 | 56 | 39 | 3.0 | 6.0 | 0.98 | 1.81 | 0.35 | 97 | 1005.6 |
| 20260505072552 | 56 | 34 | 3.0 | 5.0 | 0.98 | 1.73 | 0.34 | 97 | 1005.6 |
| 20260505072032 | 56 | 39 | 3.0 | 5.0 | 0.98 | 1.65 | 0.32 | 97 | 1005.7 |
| 20260505071538 | 55 | 32 | 2.0 | 5.0 | 0.98 | 1.57 | 0.31 | 97 | 1005.7 |
| 20260505071037 | 55 | 25 | 2.0 | 5.0 | 0.87 | 1.42 | 0.28 | 97 | 1005.8 |
| 20260505070545 | 55 | 9 | 2.0 | 6.0 | 0.87 | 1.38 | 0.27 | 97 | 1005.8 |
| 20260505070037 | 55 | 11 | 4.0 | 6.0 | 0.83 | 1.34 | 0.25 | 97 | 1005.8 |
| 20260505065546 | 55 | 9 | 3.0 | 6.0 | 0.79 | 1.26 | 0.24 | 97 | 1005.8 |
| 20260505065045 | 55 | 14 | 4.0 | 8.0 | 0.75 | 1.22 | 0.23 | 97 | 1005.8 |
| 20260505064558 | 55 | 9 | 3.0 | 6.0 | 0.67 | 1.10 | 0.20 | 97 | 1005.9 |
| 20260505064102 | 55 | 15 | 3.0 | 6.0 | 0.63 | 1.02 | 0.19 | 97 | 1005.9 |
| 20260505063529 | 55 | 17 | 3.0 | 5.0 | 0.55 | 0.94 | 0.17 | 97 | 1005.9 |
| 20260505063043 | 55 | 11 | 3.0 | 5.0 | 0.47 | 0.83 | 0.15 | 97 | 1005.9 |
| 20260505062601 | 55 | 51 | 3.0 | 5.0 | 0.39 | 0.75 | 0.13 | 97 | 1006.0 |
| 20260505062039 | 55 | 27 | 3.0 | 5.0 | 0.35 | 0.67 | 0.12 | 97 | 1006.0 |
| 20260505061547 | 55 | 42 | 3.0 | 5.0 | 0.31 | 0.63 | 0.11 | 97 | 1006.0 |
| 20260505061054 | 55 | 32 | 3.0 | 5.0 | 0.28 | 0.59 | 0.10 | 97 | 1006.0 |
| 20260505060543 | 55 | 34 | 3.0 | 6.0 | 0.24 | 0.55 | 0.09 | 97 | 1006.0 |
| 20260505060030 | 55 | 46 | 3.0 | 7.0 | 0.20 | 0.55 | 0.09 | 97 | 1006.0 |
| 20260505055537 | 56 | 53 | 4.0 | 6.0 | 0.16 | 0.51 | 0.08 | 97 | 1006.1 |
| 20260505055044 | 56 | 15 | 3.0 | 6.0 | 0.12 | 0.47 | 0.07 | 97 | 1006.1 |
| 20260505054539 | 56 | 46 | 2.0 | 6.0 | 0.12 | 0.47 | 0.07 | 97 | 1006.1 |
| 20260505054038 | 56 | 55 | 2.0 | 4.0 | 0.08 | 0.43 | 0.06 | 97 | 1006.1 |
| 20260505053542 | 56 | 42 | 1.0 | 4.0 | 0.08 | 0.43 | 0.06 | 97 | 1006.0 |
| 20260505053030 | 55 | 53 | 1.0 | 3.0 | 0.04 | 0.39 | 0.06 | 97 | 1006.0 |
| 20260505052536 | 56 | 46 | 1.0 | 3.0 | 0.04 | 0.39 | 0.06 | 97 | 1006.0 |
| 20260505052040 | 56 | 37 | 1.0 | 4.0 | 0.00 | 0.35 | 0.05 | 97 | 1006.0 |
| 20260505051529 | 56 | 45 | 2.0 | 4.0 | 0.00 | 0.35 | 0.05 | 97 | 1006.0 |
| 20260505051030 | 55 | 39 | 1.0 | 4.0 | 0.00 | 0.35 | 0.05 | 97 | 1006.0 |
| 20260505050544 | 55 | 19 | 2.0 | 4.0 | 0.00 | 0.35 | 0.05 | 97 | 1006.0 |
| 20260505041536 | 55 | 53 | 2.0 | 5.0 | 0.08 | 0.39 | 0.05 | 97 | 1006.3 |
| 20260505041034 | 55 | 51 | 2.0 | 4.0 | 0.08 | 0.39 | 0.05 | 97 | 1006.2 |
| 20260505040553 | 55 | 49 | 2.0 | 4.0 | 0.08 | 0.39 | 0.05 | 97 | 1006.3 |
| 20260505040046 | 55 | 55 | 2.0 | 3.0 | 0.08 | 0.43 | 0.05 | 97 | 1006.3 |
| 20260505035532 | 55 | 40 | 1.0 | 4.0 | 0.08 | 0.39 | 0.04 | 97 | 1006.4 |
| 20260505035030 | 55 | 41 | 1.0 | 3.0 | 0.08 | 0.39 | 0.04 | 97 | 1006.5 |
| 20260505034538 | 55 | 54 | 2.0 | 4.0 | 0.16 | 0.39 | 0.04 | 97 | 1006.5 |
| 20260505034041 | 55 | 36 | 2.0 | 4.0 | 0.20 | 0.39 | 0.04 | 97 | 1006.6 |
| 20260505033533 | 55 | 49 | 2.0 | 4.0 | 0.20 | 0.39 | 0.04 | 97 | 1006.6 |
| 20260505033046 | 55 | 34 | 2.0 | 4.0 | 0.20 | 0.39 | 0.04 | 97 | 1006.7 |
| 20260505032531 | 55 | 47 | 1.0 | 4.0 | 0.20 | 0.39 | 0.04 | 97 | 1006.7 |
| 20260505032034 | 55 | 54 | 1.0 | 6.0 | 0.20 | 0.39 | 0.04 | 97 | 1006.8 |
| 20260505031540 | 55 | 52 | 2.0 | 6.0 | 0.16 | 0.35 | 0.03 | 97 | 1006.8 |
| 20260505031047 | 55 | 60 | 2.0 | 6.0 | 0.16 | 0.35 | 0.03 | 97 | 1006.9 |
| 20260505030534 | 55 | 46 | 4.0 | 8.0 | 0.16 | 0.35 | 0.03 | 97 | 1006.9 |
| 20260505030030 | 55 | 30 | 3.0 | 8.0 | 0.16 | 0.59 | 0.03 | 97 | 1006.8 |
| 20260505025540 | 55 | 52 | 3.0 | 6.0 | 0.12 | 0.55 | 0.02 | 97 | 1006.9 |
| 20260505025049 | 55 | 33 | 2.0 | 5.0 | 0.08 | 0.51 | 0.02 | 97 | 1007.1 |
| 20260505024549 | 55 | 23 | 2.0 | 3.0 | 0.04 | 0.47 | 0.01 | 97 | 1007.1 |
| 20260505024034 | 55 | 5 | 2.0 | 3.0 | 0.00 | 0.43 | 0.00 | 97 | 1007.3 |
| 20260505023538 | 55 | 349 | 1.0 | 2.0 | 0.00 | 0.43 | 0.00 | 97 | 1007.4 |
| 20260505023040 | 55 | 25 | 0.0 | 1.0 | 0.00 | 0.43 | 0.00 | 97 | 1007.4 |
| 20260505022543 | 55 | 25 | 0.0 | 1.0 | 0.00 | 0.43 | 0.00 | 97 | 1007.4 |
| 20260505022103 | 55 | 25 | 0.0 | 0.0 | 0.00 | 0.43 | 0.00 | 97 | 1007.4 |
| 20260505021530 | 55 | 25 | 0.0 | 2.0 | 0.00 | 0.43 | 0.00 | 97 | 1007.4 |
| 20260505021040 | 55 | 25 | 0.0 | 2.0 | 0.00 | 0.43 | 0.00 | 97 | 1007.5 |
| 20260505020554 | 55 | 30 | 1.0 | 2.0 | 0.00 | 0.43 | 0.00 | 97 | 1007.4 |
| 20260505020032 | 55 | 30 | 1.0 | 3.0 | 0.00 | 0.43 | 0.00 | 97 | 1007.5 |
| 20260505015604 | 55 | 32 | 1.0 | 3.0 | 0.00 | 0.43 | 0.00 | 97 | 1007.4 |
| 20260505015031 | 55 | 40 | 1.0 | 3.0 | 0.00 | 0.43 | 0.00 | 97 | 1007.5 |
| 20260505014537 | 54 | 44 | 1.0 | 2.0 | 0.00 | 0.43 | 0.00 | 96 | 1007.4 |
| 20260505014055 | 54 | 350 | 0.0 | 2.0 | 0.00 | 0.43 | 0.00 | 96 | 1007.6 |
| 20260505013544 | 54 | 332 | 1.0 | 3.0 | 0.00 | 0.43 | 0.00 | 97 | 1007.6 |
| 20260505013033 | 54 | 345 | 0.0 | 3.0 | 0.00 | 0.43 | 0.00 | 96 | 1007.6 |
| 20260505012544 | 54 | 344 | 2.0 | 3.0 | 0.00 | 0.43 | 0.00 | 96 | 1007.4 |
| 20260505012043 | 54 | 349 | 2.0 | 4.0 | 0.00 | 0.43 | 0.00 | 96 | 1007.5 |
| 20260505011558 | 54 | 5 | 2.0 | 4.0 | 0.00 | 0.43 | 0.00 | 96 | 1007.6 |
| 20260505011030 | 54 | 350 | 2.0 | 4.0 | 0.00 | 0.43 | 0.00 | 96 | 1007.7 |
| 20260505010600 | 54 | 10 | 2.0 | 4.0 | 0.00 | 0.43 | 0.00 | 96 | 1007.7 |
| 20260505010038 | 54 | 19 | 1.0 | 2.0 | 0.00 | 0.43 | 0.00 | 96 | 1007.7 |
| 20260505005541 | 55 | 22 | 1.0 | 2.0 | 0.00 | 0.43 | 0.00 | 96 | 1007.7 |
| 20260505005036 | 55 | 19 | 1.0 | 3.0 | 0.00 | 0.43 | 0.00 | 96 | 1007.9 |
| 20260505004542 | 55 | 360 | 1.0 | 3.0 | 0.00 | 0.43 | 0.00 | 96 | 1008.0 |
| 20260505004103 | 55 | 355 | 1.0 | 2.0 | 0.00 | 0.43 | 0.00 | 96 | 1008.1 |
| 20260505003529 | 55 | 5 | 1.0 | 2.0 | 0.00 | 0.43 | 0.00 | 96 | 1008.2 |
| 20260505003105 | 55 | 355 | 1.0 | 1.0 | 0.00 | 0.43 | 0.00 | 96 | 1008.3 |
| 20260505002530 | 55 | 27 | 0.0 | 1.0 | 0.00 | 0.43 | 0.00 | 96 | 1008.3 |
| 20260505002044 | 55 | 32 | 0.0 | 2.0 | 0.00 | 0.43 | 0.00 | 96 | 1008.3 |
| 20260505001528 | 55 | 32 | 0.0 | 2.0 | 0.00 | 0.43 | 0.00 | 96 | 1008.3 |
| 20260505001040 | 55 | 360 | 0.0 | 0.0 | 0.00 | 0.43 | 0.00 | 96 | 1008.4 |
| 20260505000528 | 55 | 360 | 0.0 | 1.0 | 0.00 | 0.43 | 0.00 | 96 | 1008.4 |
| 20260505000056 | 55 | 360 | 0.0 | 3.0 | 0.00 | 0.43 | 0.09 | 96 | 1008.4 |
| 20260504235530 | 55 | 355 | 1.0 | 2.0 | 0.00 | 0.43 | 0.09 | 96 | 1008.3 |
| 20260504235044 | 55 | 13 | 0.0 | 2.0 | 0.00 | 0.43 | 0.09 | 96 | 1008.4 |
| 20260504234533 | 55 | 54 | 0.0 | 3.0 | 0.00 | 0.43 | 0.09 | 96 | 1008.4 |
| 20260504234030 | 55 | 40 | 1.0 | 3.0 | 0.00 | 0.43 | 0.09 | 96 | 1008.3 |
| 20260504233535 | 55 | 19 | 2.0 | 3.0 | 0.00 | 0.43 | 0.09 | 96 | 1008.2 |
| 20260504233036 | 55 | 13 | 1.0 | 3.0 | 0.00 | 0.43 | 0.09 | 96 | 1008.3 |
| 20260504232540 | 56 | 19 | 1.0 | 3.0 | 0.00 | 0.43 | 0.09 | 96 | 1008.3 |
| 20260504232043 | 56 | 26 | 1.0 | 3.0 | 0.00 | 0.43 | 0.09 | 96 | 1008.4 |
| 20260504231530 | 56 | 20 | 2.0 | 3.0 | 0.00 | 0.43 | 0.09 | 96 | 1008.4 |
| 20260504231044 | 56 | 11 | 1.0 | 4.0 | 0.00 | 0.43 | 0.09 | 96 | 1008.5 |
| 20260504230531 | 56 | 355 | 2.0 | 4.0 | 0.00 | 0.43 | 0.09 | 96 | 1008.5 |
| 20260504230046 | 56 | 355 | 2.0 | 4.0 | 0.00 | 0.43 | 0.09 | 96 | 1008.6 |
| 20260504225533 | 56 | 355 | 1.0 | 3.0 | 0.00 | 0.43 | 0.09 | 96 | 1008.7 |
| 20260504225030 | 56 | 346 | 1.0 | 4.0 | 0.00 | 0.43 | 0.09 | 96 | 1008.6 |
| 20260504224542 | 56 | 331 | 2.0 | 4.0 | 0.00 | 0.43 | 0.09 | 96 | 1008.5 |
| 20260504224042 | 56 | 350 | 2.0 | 5.0 | 0.00 | 0.43 | 0.09 | 96 | 1008.6 |
| 20260504223551 | 56 | 360 | 2.0 | 5.0 | 0.00 | 0.43 | 0.09 | 96 | 1008.5 |
| 20260504223040 | 56 | 360 | 1.0 | 5.0 | 0.00 | 0.43 | 0.09 | 95 | 1008.7 |
| 20260504222545 | 56 | 5 | 1.0 | 5.0 | 0.00 | 0.43 | 0.09 | 95 | 1008.8 |
| 20260504222043 | 56 | 355 | 2.0 | 4.0 | 0.00 | 0.43 | 0.09 | 95 | 1008.8 |
| 20260504221559 | 57 | 355 | 0.0 | 1.0 | 0.00 | 0.43 | 0.09 | 95 | 1009.1 |
| 20260504221039 | 57 | 355 | 0.0 | 1.0 | 0.00 | 0.43 | 0.09 | 95 | 1009.0 |
| 20260504220540 | 57 | 17 | 0.0 | 1.0 | 0.00 | 0.43 | 0.09 | 95 | 1009.1 |